This is the latest recevied weather packets stored in our database for station/object DB0SMU-12. If no packets are shown the sender has not sent any weather packets the latest 10 day(s).
| Time | Temp. | Humidity | Pressure | Rain* | Wind** | Luminosity | Snow |
|---|---|---|---|---|---|---|---|
| 1777922318 | 16.11° C | 69% | 1014.3 hPa | 3.81 mm | - | - | - |
| 1777922137 | 16.11° C | 68% | 1014.3 hPa | 3.81 mm | - | - | - |
| 1777921956 | 16.11° C | 68% | 1014.2 hPa | 3.56 mm | - | - | - |
| 1777921775 | 16.11° C | 67% | 1014.3 hPa | 3.56 mm | - | - | - |
| 1777921595 | 16.11° C | 68% | 1014.2 hPa | 3.3 mm | - | - | - |
| 1777921233 | 17.22° C | 66% | 1014.1 hPa | 3.05 mm | - | - | - |
| 1777921052 | 17.22° C | 66% | 1013.8 hPa | 3.05 mm | - | - | - |
| 1777920870 | 16.67° C | 64% | 1013.7 hPa | 3.05 mm | - | - | - |
| 1777920690 | 17.22° C | 62% | 1013.7 hPa | 2.79 mm | - | - | - |
| 1777920509 | 17.22° C | 61% | 1013.8 hPa | 1.78 mm | - | - | - |
| 1777920328 | 18.33° C | 58% | 1013.6 hPa | 0.51 mm | - | - | - |
| 1777920147 | 18.89° C | 55% | 1013.5 hPa | 0 mm | - | - | - |
| 1777919966 | 19.44° C | 53% | 1013.3 hPa | 0 mm | - | - | - |
| 1777919785 | 19.44° C | 45% | 1013.1 hPa | 0 mm | - | - | - |
| 1777919604 | 19.44° C | 44% | 1012.9 hPa | 0 mm | - | - | - |
| 1777919423 | 19.44° C | 43% | 1012.7 hPa | 0 mm | - | - | - |
| 1777919242 | 19.44° C | 44% | 1012.7 hPa | 0 mm | - | - | - |
| 1777919061 | 19.44° C | 44% | 1012.6 hPa | 0 mm | - | - | - |
| 1777918881 | 19.44° C | 44% | 1012.5 hPa | 0 mm | - | - | - |
| 1777918700 | 19.44° C | 43% | 1012.5 hPa | 0 mm | - | - | - |
| 1777918519 | 20° C | 43% | 1012.5 hPa | 0 mm | - | - | - |
| 1777918338 | 19.44° C | 44% | 1012.5 hPa | 0 mm | - | - | - |
| 1777918157 | 20° C | 44% | 1012.5 hPa | 0 mm | - | - | - |
| 1777917976 | 20° C | 43% | 1012.5 hPa | 0 mm | - | - | - |
| 1777917795 | 20° C | 43% | 1012.4 hPa | 0 mm | - | - | - |
* Rain latest hour (hover to see other rain measurements)
** Current wind speed in m/s (hover to see current wind gust speed)